www.pogodaiklimat.ru

Погода и климат >> Архив погоды >> Кипр >> Никосия


ПОГОДА в Никосии

  • Прогноз погоды в Никосии
  • Монитор погоды в Никосии

АРХИВ ПОГОДЫ в Никосии

Время (UTC), дата Ветер
(напр.,м/с)
 
Видим.   Явления Облачность Т
(С)
Тd
(С)
f
(%)
Тe
(С)
Тes
(С)
Комфортность P
(гПа)
Po
(гПа)
Тmin
(С)
Tmax
(С)
R
(мм)
R24
(мм)
S
(см)
06 12.06 СЗ 2 10 км ясно +25.3 +18.6 66 +30 +39 душно 1010.3 996.9 +19.4
09 12.06 З 3 10 км 3/3 750 м
[Cu hum]
+30.6 +15.0 39 +33 +45 душно 1010.3 997.0
12 12.06 ЮВ 4 7000 м гроза без осадков 8/8 750 м
[Cb cap Ac und]
+27.8 +18.7 58 +33 +35 очень
душно
1009.8 996.6
15 12.06 С 4 10 км в посл. час гроза 3/1 750 м
[Cu hum Ci fib]
+27.8 +17.8 55 +32 +34 душно 1009.0 995.9
18 12.06 З 5 10 км {гроза} 1/1 750 м
[Cu hum]
+24.0 +17.1 65 +28 +28 душно 1009.8 996.7 +32.7
21 12.06 СЗ 4 10 км 1/1 750 м
[Cu hum]
+22.2 +19.0 82 +28 +28 душно 1010.1 996.9
00 13.06 ЮЗ 2 10 км 1/1 750 м
[Cu hum]
+21.4 +18.8 85 +26 +26 душно 1009.3 996.0
03 13.06 З 3 8000 м дымка 4/4 450 м
[St]
+20.9 +18.3 85 +26 +26 душно 1009.5 996.2
09 13.06 В 3 10 км 6/6 600 м
[Cu med, cong]
+29.4 +16.1 45 +33 +40 душно 1009.6 996.4
12 13.06 Ю 2 10 км 8/8 600 м
[Cb cap]
+29.4 +16.5 46 +33 +36 душно 1008.7 995.6
15 13.06 С 4 10 км {ливн. осадки} 5/5 600 м
[Cb cap]
+27.4 +19.1 61 +33 +34 очень
душно
1008.1 995.0
18 13.06 З 4 10 км {ливн. осадки} 3/3 600 м
[Cu hum]
+23.7 +19.3 76 +29 +29 душно 1008.8 995.7 +31.5 6
21 13.06 З 4 10 км 1/1 600 м
[Cu hum]
+22.1 +19.7 86 +28 +28 душно 1009.0 995.8
00 14.06 штиль 0 7000 м дымка 4/4 450 м
[St]
+21.4 +19.5 89 +26 +26 душно 1007.9 994.6
03 14.06 З 2 6000 м дымка 6/6 450 м
[St]
+20.7 +19.2 91 +26 +26 душно 1007.7 994.4
06 14.06 штиль 0 10 км 3/3 750 м
[Cu hum]
+25.7 +19.5 69 +31 +40 очень
душно
1008.7 995.3 +20.3
09 14.06 С 3 10 км 5/5 750 м
[Cu hum]
+30.5 +15.5 40 +33 +42 душно 1008.2 995.0
12 14.06 С 3 10 км 6/6 750 м
[Cb cap]
+33.1 +13.0 30 +34 +39 очень
жарко
1007.0 993.9
15 14.06 Ю 7 10 км 6/6 750 м
[Cb cap]
+29.7 +16.7 46 +33 +34 душно 1006.5 993.5
18 14.06 ЮЗ 3 10 км 3/1 750 м
[Cu hum Ci fib]
+26.4 +19.9 67 +32 +32 очень
душно
1007.0 994.0 +33.8
21 14.06 СЗ 4 10 км 3/3 750 м
[Cu hum]
+23.2 +20.4 84 +30 +30 очень
душно
1007.8 994.8
00 15.06 З 2 10 км 3/3 750 м
[Cu hum]
+22.2 +19.6 85 +28 +28 душно 1006.1 993.0
03 15.06 штиль 0 9000 м дымка ясно +20.7 +18.7 88 +24 +25 комфорт 1006.4 993.2
06 15.06 В 3 10 км 1/1 750 м
[Cu hum]
+25.9 +18.9 65 +31 +38 очень
душно
1007.3 994.0 +19.9
09 15.06 штиль 0 10 км 4/4 750 м
[Cu med, cong]
+31.0 +16.1 41 +34 +51 опасность
солнечного
удара
1007.0 993.8
15 15.06 З 2 10 км {гроза} 5/5 750 м
[Cb cap]
+30.8 +18.4 48 +36 +37 очень
душно
1005.3 992.3
18 15.06 СЗ 4 10 км {гроза} 1/1 750 м
[Cu hum]
+25.5 +19.7 70 +31 +31 очень
душно
1006.0 993.0 +33.2 1
21 15.06 З 3 10 км 1/1 750 м
[Cu hum]
+22.9 +18.9 78 +29 +29 очень
душно
1006.6 993.5
00 16.06 ЮЗ 2 10 км 1/1 750 м
[Cu hum]
+21.3 +18.5 84 +26 +26 душно 1006.2 993.0
09 16.06 Ю 4 10 км 5/5 750 м
[Cu med, cong]
+31.0 +16.9 43 +35 +42 очень
душно
1007.1 993.8
18 16.06 СЗ 3 10 км {гроза} 1/1 750 м
[Cu hum]
+22.2 +16.8 71 +27 +27 душно 1006.7 993.6 +33.3 22
21 16.06 З 2 10 км 1/1 750 м
[Cu hum]
+21.9 +19.5 86 +27 +27 душно 1006.9 993.7
00 17.06 З 3 5000 м дымка 1/1 300 м
[St]
+20.7 +19.4 92 +26 +26 душно 1006.9 993.6
03 17.06 З 2 4000 м дымка 5/5 300 м
[St]
+20.4 +18.9 91 +25 +25 комфорт 1007.0 993.7
06 17.06 штиль 0 10 км 5/5 750 м
[Cu hum]
+25.7 +19.7 69 +31 +37 очень
душно
1008.1 994.7 +20.4
09 17.06 З 3 10 км 5/5 750 м
[Cb cap]
+30.7 +14.6 38 +33 +41 душно 1008.1 995.0
12 17.06 З 3 10 км 6/6 750 м
[Cb cap]
+30.3 +16.6 44 +34 +40 очень
душно
1007.7 994.6
15 17.06 З 2 10 км {ливн. осадки} 4/4 750 м
[Cu hum]
+30.7 +15.0 39 +33 +35 душно 1007.1 994.1
18 17.06 штиль 0 10 км {ливн. осадки} 3/3 750 м
[Cu hum]
+25.3 +17.6 62 +29 +29 душно 1008.1 995.0 +31.9 1
00 18.06 З 3 10 км 1/1 750 м
[Cu hum]
+21.2 +19.0 87 +26 +26 душно 1008.4 995.2
03 18.06 штиль 0 8000 м дымка 1/1 750 м
[Cu hum]
+19.6 +17.9 90 +22 +22 комфорт 1008.5 995.2
06 18.06 штиль 0 10 км 1/1 750 м
[Cu hum]
+25.9 +19.4 67 +31 +42 очень
душно
1009.7 996.3 +19.6
09 18.06 ЮЗ 2 10 км 5/5 750 м
[Cu hum]
+30.2 +15.8 42 +33 +43 душно 1009.4 996.1
12 18.06 СЗ 5 10 км 9/9 750 м
[Cb cap]
+29.7 +19.3 54 +35 +36 очень
душно
1007.9 994.8
15 18.06 СВ 2 10 км в посл. час гроза 6/5 600 м
[Cb cap Ci sp]
+25.6 +20.5 73 +32 +33 очень
душно
1008.9 995.7
18 18.06 штиль 0 10 км {гроза} 6/6 600 м
[Cu hum]
+24.7 +19.8 74 +30 +30 очень
душно
1009.3 996.2 +33.5 19
21 18.06 З 3 10 км 4/4 600 м
[Cu hum]
+22.9 +19.9 83 +30 +30 очень
душно
1009.9 996.7
00 19.06 штиль 0 10 км 1/1 750 м
[Cu hum]
+21.1 +19.2 89 +26 +26 душно 1009.0 995.7
03 19.06 штиль 0 8000 м дымка 1/1 750 м
[Cu hum]
+20.4 +18.6 89 +24 +24 комфорт 1008.6 995.3

 

Местоположение метеостанции Никосия (Кипр): широта 35.15 долгота 33.50 высота над уровнем моря 110 м.

В архиве по умолчанию представлена погода в Никосии за последнюю неделю. Архивные данные за месяц целиком и за предыдущие месяцы, начиная с января 2011 года, Вы можете получить, выбрав интересующий диапазон дат из раскрывающегося списка и нажав кнопку "Ввод!".


*Определитесь, кто Вы:
робот инопланетянин человек

Внимание! Время в таблицах - всемирное. Для получения местного времени необходимо прибавить поправку, которая равна 2 ч.

Смотрите также архив погоды в соседних городах и на ближайших метеорологических станциях:

Погода в Аталассе (Кипр) (9 км)
Погода на Базе ВВС Gecitkale (Кипр) (23 км)
Погода в Лефконико (Кипр) (24 км)
Погода в Киринии (Кипр) (28 км)
Погода в Ларнаке (Кипр) (32 км)
Погода в Искеле (Кипр) (37 км)
Погода в Фамагусте (Кипр) (41 км)
Погода в Unknown (Кипр) (48 км)
Погода в Акденизе (Кипр) (51 км)
Погода в Гиалусе (Кипр) (63 км)

Пояснения к столбцам:

Ветер - указаны скорость ветра в м/с - средняя за 10 мин, порывы в срок и между сроками (в фигурных скобках) и направление, откуда дует ветер: С - северный, СВ - северо-восточный, В - восточный, ЮВ - юго-восточный, Ю - южный, ЮЗ - юго-западный, З - западный, СЗ - северо-западный.
Видимость - горизонтальная дальность видимости в метрах или километрах. При видимости от 1 до 10 км при отсутствии осадков обычно наблюдается дымка, при ухудшении видимости до 1 км и менее - туман. В сухую погоду видимость может ухудшаться дымом, пылью или мглою.
Явления - указаны атмосферные явления, наблюдавшиеся в срок или в последний час перед сроком; фигурными скобками обозначены явления, наблюдавшиеся между сроками (за 1-3 часа до срока); квадратными скобками обозначены град или гололедные отложения с указанием их диаметра в мм.
Облачность - указаны через наклонную черту общая и нижняя облачность в баллах и высота нижней границы облаков в метрах; квадратными скобками обозначены формы облаков: Ci - перистые, Cs - перисто-слоистые, Cc - перисто-кучевые, Ac - высококучевые, As - высокослоистые, Sc - слоисто-кучевые, Ns - слоисто-дождевые, Cu - кучевые, Cb - кучево-дождевые. Подробнее классификацию облаков см. в Атласе облаков (PDF).
T - Температура воздуха - температура, измеренная на высоте 2 м над землей.
Td - Температура точки росы - температура, при понижении до которой содержащийся в воздухе водяной пар достигнет насыщения.
f - Относительная влажность воздуха - влажноcть воздуха, измеренная на высоте 2 м над землей.
Te - Эффективная температура - температура, которую ощущает одетый по сезону человек в тени. Характеристика душности погоды. При расчете учитывается влияние влажности воздуха и скорости ветра на теплоощущения человека.
Tes - Эффективная температура на солнце - температура, которую ощущает человек, с поправкой на солнечный нагрев. Характеристика знойности погоды. Зависит от высоты солнца над горизонтом, облачности и скорости ветра. Ночью, в пасмурную погоду, а также при ветре 12 м/с и более поправка равна нулю.
P - Атмосферное давление - приведенное к уровню моря атмосферное давление.
Po - Атмосферное давление - измеренное на уровне метеостанции атмосферное давление.
Tmin - Минимальная температура - минимум температуры воздуха на высоте 2 м над землей.
Tmax - Максимальная температура - максимум температуры воздуха на высоте 2 м над землей.
R - Количество осадков - Количество выпавших осадков за период времени, мм. При наведении курсора мыши на число - период времени, за который выпало указанное количество осадков.
R24 - Количество осадков - Количество выпавших осадков за 24 часа, мм.
S - Снежный покров - Высота снежного покрова, см. При наведении курсора мыши на число - состояние снежного покрова и степень покрытия местности в баллах.